Regional Weather Roundup
Issued by NWS

Home | Current Version | Previous Version | Graphics & Text | Print | Product List | Glossary On
Versions: 1 2 3 4 5 6 7 8 9 10 11 12 13 14 15 16 17 18 19 20 21 22 23 24 25 26 27 28 29 30 31 32 33 34 35 36 37 38 39 40 41 42 43 44 45 46 47 48 49 50
000
ASUS45 KBOU 010407
RWRCO

WEATHER ROUNDUP FOR COLORADO
NATIONAL WEATHER SERVICE DENVER/BOULDER CO
1000 PM MDT MON AUG 31 2015

NOTE: "FAIR" INDICATES FEW OR NO CLOUDS BELOW 12000 FEET WITH NO
SIGNIFICANT WEATHER AND/OR OBSTRUCTIONS TO VISIBILITY.

COZ001>005-013-030-031-010500-
...NORTHWEST COLORADO...

CITY           SKY/WX    TMP DP  RH WIND       PRES   REMARKS
CRAIG          MOCLDY    60  46  59 E9        30.22S
HAYDEN         NOT AVBL
MEEKER         CLOUDY    56  49  77 NE5       30.24R
MOUNT WERNER   NOT AVBL
STEAMBOAT SPGS MOCLDY    54  46  73 E5        30.28S
WALDEN         MOCLDY    46  43  87 SE8       30.34S
$$

COZ006>008-011-010500-
...WEST CENTRAL VALLEYS...

CITY           SKY/WX    TMP DP  RH WIND       PRES   REMARKS
GRAND JUNCTION CLOUDY    75  55  49 SW5       30.09R
MONTROSE       MOCLDY    67  54  63 SE7       30.18R
EAGLE          MOCLDY    61  54  77 SE5       30.29R
RIFLE          MOCLDY    66  50  56 SW6       30.18R
DELTA          MOCLDY    71  55  55 NE8       30.13R
NUCLA          MOCLDY    68  41  37 E8        30.23R
$$

COZ017>023-064>068-010500-
...SOUTHWEST COLORADO...

CITY           SKY/WX    TMP DP  RH WIND       PRES   REMARKS
DURANGO        MOCLDY    68  40  35 SW6       30.23R
CORTEZ         CLEAR     69  47  45 SE3       30.18R
PAGOSA SPRINGS MOCLDY    58  43  57 CALM      30.31R
TELLURIDE      CLOUDY    58  47  67 CALM      30.44R
WOLF CREEK PAS PTCLDY    45  36  70 SW9       30.64S
$$

COZ009-010-012-014-032>034-037-058>063-010500-
...CENTRAL COLORADO...

CITY           SKY/WX    TMP DP  RH WIND       PRES   REMARKS
ASPEN          PTCLDY    52  47  83 SW6       30.33R
BUENA VISTA    PTCLDY    55  48  77 W6        30.33R
COPPER MTN     PTCLDY    46  37  71 W16       30.61S
BERTHOUD PASS  FAIR      37  27  65 NW21G29   30.63F
COTTONWOOD PAS PTCLDY    59  41  51 W5        30.46S
GUNNISON       MOCLDY    57  43  58 W3        30.34R
KREMMLING      PTCLDY    54  43  66 W3        30.34S
LEADVILLE      CLEAR     46  37  71 NE9       30.45R
MONARCH PASS   MOCLDY    46  37  71 W12       30.71S
SALIDA         MOCLDY    60  47  61 W10       30.37R
SUNLIGHT       LGT RAIN  50  48  93 CALM      30.55S
WILKERSON PASS CLOUDY    50  37  62 CALM      30.58S
$$

COZ069>075-010500-
...SAN LUIS VALLEY/SANGRE DE CRISTO MOUNTAINS...

CITY           SKY/WX    TMP DP  RH WIND       PRES   REMARKS
ALAMOSA        CLOUDY    57  50  77 W5        30.29R
LA VETA PASS   CLOUDY    50  41  71 S6        30.48S THUNDER
SAGUACHE       MOCLDY    55  43  62 CALM      30.33R
$$

COZ035-036-038>040-010500-
...NORTHERN COLORADO FRONT RANGE...

CITY           SKY/WX    TMP DP  RH WIND       PRES   REMARKS
DENVER INTL AP MOCLDY    60  54  80 S8        30.17R
DMNS CITY PARK   N/A     62  55  80 N5G10     30.18R
AURORA         MOCLDY    62  52  70 S6        30.18F
FRONT RANGE AP NOT AVBL
ERIE MUNI ARPT PTCLDY    62  58  85 CALM      30.17R
BOULDER MUN AP PTCLDY    63  57  82 W8        30.18R
CENTENNIAL     MOCLDY    60  54  80 CALM      30.19S
BROOMFIELD     MOCLDY    63  57  82 CALM      30.20R
FORT COLLINS   PTCLDY    64  48  55 S6        30.16S
LONGMONT       PTCLDY    64  56  76 NW5       30.18S
$$

COZ041-046-047-076>085-087-088-010500-
...PIKES PEAK/PALMER DIVIDE AND SOUTHERN FOOTHILLS...

CITY           SKY/WX    TMP DP  RH WIND       PRES   REMARKS
COLO. SPRINGS  PTCLDY    63  52  67 NW10      30.20S
A. F. ACADEMY  PTCLDY    57  54  88 N9        30.22S
ELLICOTT       PTCLDY   N/A N/A N/A N7        30.17S
FALCON         PTCLDY    60  49  65 MISG      30.25S
FORT CARSON    PTCLDY    63  54  73 N10       30.16S
LIMON          CLOUDY    59  57  93 CALM      30.15F
MONUMENT HILL  PTCLDY    54  52  94 NW3       30.27S
TRINIDAD       CLOUDY    70  50  49 N7G17     30.16R
$$

COZ042>045-048>051-090-091-010500-
...NORTHEAST COLORADO...

CITY           SKY/WX    TMP DP  RH WIND       PRES   REMARKS
GREELEY ARPT   MOCLDY    64  52  63 CALM      30.14F
AKRON          CLOUDY    64  60  87 CALM      30.12S
BURLINGTON     CLOUDY    66  59  78 NW21G31   30.09R
WRAY           CLOUDY    67  60  75 W22G29    30.03R
STERLING       LGT RAIN  64  61  88 S5        30.06F
HOLYOKE        MOCLDY    68  59  73 S10G16    30.05R
FORT MORGAN    CLOUDY    59  55  87 W6        30.11S
$$

COZ086-089-092>099-010500-
...SOUTHEAST COLORADO...

CITY           SKY/WX    TMP DP  RH WIND       PRES   REMARKS
PUEBLO         PTCLDY    71  53  52 CALM      30.08R
LA JUNTA       CLOUDY    75  54  47 N13G21    30.04R
LAMAR          MOCLDY    74  57  55 N20G30    29.97R
SPRINGFIELD      N/A     72  54  53 N10       30.06R
$$




USA.gov is the U.S. government's official web portal to all federal, state and local government web resources and services.